Year,Month,Day,Hour,Minute,Value (Times are PST for temperature in C)
2015,01,18,00,00,5.70
2015,01,18,00,01,5.70
2015,01,18,00,02,5.70
2015,01,18,00,03,5.70
2015,01,18,00,04,5.70
2015,01,18,00,05,5.60
2015,01,18,00,06,5.60
2015,01,18,00,07,5.60
2015,01,18,00,08,5.60
2015,01,18,00,09,5.60
2015,01,18,00,10,5.60
2015,01,18,00,11,5.60
2015,01,18,00,12,5.60
2015,01,18,00,13,5.60
2015,01,18,00,14,5.60
2015,01,18,00,15,5.60
2015,01,18,00,16,5.60
2015,01,18,00,17,5.60
2015,01,18,00,18,5.50
2015,01,18,00,19,5.50
2015,01,18,00,20,5.50
2015,01,18,00,21,5.50
2015,01,18,00,22,5.50
2015,01,18,00,23,5.50
2015,01,18,00,24,5.50
2015,01,18,00,25,5.50
2015,01,18,00,26,5.50
2015,01,18,00,27,5.50
2015,01,18,00,28,5.50
2015,01,18,00,29,5.50
2015,01,18,00,30,5.50
2015,01,18,00,31,5.50
2015,01,18,00,32,5.50
2015,01,18,00,33,5.50
2015,01,18,00,34,5.50
2015,01,18,00,35,5.50
2015,01,18,00,36,5.50
2015,01,18,00,37,5.50
2015,01,18,00,38,5.50
2015,01,18,00,39,5.50
2015,01,18,00,40,5.50
2015,01,18,00,41,5.50
2015,01,18,00,42,5.50
2015,01,18,00,43,5.50
2015,01,18,00,44,5.50
2015,01,18,00,45,5.50
2015,01,18,00,46,5.50
2015,01,18,00,47,5.50
2015,01,18,00,48,5.50
2015,01,18,00,49,5.50
2015,01,18,00,50,5.50
2015,01,18,00,51,5.50
2015,01,18,00,52,5.50
2015,01,18,00,53,5.50
2015,01,18,00,54,5.50
2015,01,18,00,55,5.50
2015,01,18,00,56,5.50
2015,01,18,00,57,5.50
2015,01,18,00,58,5.50
2015,01,18,00,59,5.50
2015,01,18,01,00,5.50
2015,01,18,01,01,5.50
2015,01,18,01,02,5.50
2015,01,18,01,03,5.50
2015,01,18,01,04,5.50
2015,01,18,01,05,5.50
2015,01,18,01,06,5.50
2015,01,18,01,07,5.50
2015,01,18,01,08,5.50
2015,01,18,01,09,5.50
2015,01,18,01,10,5.50
2015,01,18,01,11,5.50
2015,01,18,01,12,5.50
2015,01,18,01,13,5.50
2015,01,18,01,14,5.50
2015,01,18,01,15,5.50
2015,01,18,01,16,5.50
2015,01,18,01,17,5.60
2015,01,18,01,18,5.60
2015,01,18,01,19,5.60
2015,01,18,01,20,5.60
2015,01,18,01,21,5.60
2015,01,18,01,22,5.60
2015,01,18,01,23,5.60
2015,01,18,01,24,5.60
2015,01,18,01,25,5.60
2015,01,18,01,26,5.60
2015,01,18,01,27,5.60
2015,01,18,01,28,5.60
2015,01,18,01,29,5.60
2015,01,18,01,30,5.60
2015,01,18,01,31,5.60
2015,01,18,01,32,5.60
2015,01,18,01,33,5.60
2015,01,18,01,34,5.60
2015,01,18,01,35,5.60
2015,01,18,01,36,5.60
2015,01,18,01,37,5.60
2015,01,18,01,38,5.60
2015,01,18,01,39,5.60
2015,01,18,01,40,5.60
2015,01,18,01,41,5.60
2015,01,18,01,42,5.60
2015,01,18,01,43,5.60
2015,01,18,01,44,5.60
2015,01,18,01,45,5.60
2015,01,18,01,46,5.60
2015,01,18,01,47,5.60
2015,01,18,01,48,5.60
2015,01,18,01,49,5.60
2015,01,18,01,50,5.60
2015,01,18,01,51,5.60
2015,01,18,01,52,5.60
2015,01,18,01,53,5.60
2015,01,18,01,54,5.70
2015,01,18,01,55,5.70
2015,01,18,01,56,5.70
2015,01,18,01,57,5.70
2015,01,18,01,58,5.70
2015,01,18,01,59,5.70
2015,01,18,02,00,5.70
2015,01,18,02,01,5.70
2015,01,18,02,02,5.70
2015,01,18,02,03,5.70
2015,01,18,02,04,5.70
2015,01,18,02,05,5.70
2015,01,18,02,06,5.70
2015,01,18,02,07,5.70
2015,01,18,02,08,5.70
2015,01,18,02,09,5.70
2015,01,18,02,10,5.70
2015,01,18,02,11,5.70
2015,01,18,02,12,5.70
2015,01,18,02,13,5.70
2015,01,18,02,14,5.70
2015,01,18,02,15,5.70
2015,01,18,02,16,5.70
2015,01,18,02,17,5.70
2015,01,18,02,18,5.70
2015,01,18,02,19,5.70
2015,01,18,02,20,5.70
2015,01,18,02,21,5.70
2015,01,18,02,22,5.70
2015,01,18,02,23,5.70
2015,01,18,02,24,5.70
2015,01,18,02,25,5.70
2015,01,18,02,26,5.70
2015,01,18,02,27,5.70
2015,01,18,02,28,5.70
2015,01,18,02,29,5.70
2015,01,18,02,30,5.70
2015,01,18,02,31,5.70
2015,01,18,02,32,5.70
2015,01,18,02,33,5.70
2015,01,18,02,34,5.70
2015,01,18,02,35,5.70
2015,01,18,02,36,5.70
2015,01,18,02,37,5.70
2015,01,18,02,38,5.80
2015,01,18,02,39,5.80
2015,01,18,02,40,5.70
2015,01,18,02,41,5.80
2015,01,18,02,42,5.70
2015,01,18,02,43,5.70
2015,01,18,02,44,5.70
2015,01,18,02,45,5.70
2015,01,18,02,46,5.80
2015,01,18,02,47,5.80
2015,01,18,02,48,5.80
2015,01,18,02,49,5.80
2015,01,18,02,50,5.80
2015,01,18,02,51,5.80
2015,01,18,02,52,5.80
2015,01,18,02,53,5.80
2015,01,18,02,54,5.80
2015,01,18,02,55,5.80
2015,01,18,02,56,5.80
2015,01,18,02,57,5.80
2015,01,18,02,58,5.80
2015,01,18,02,59,5.80
2015,01,18,03,00,5.80
2015,01,18,03,01,5.80
2015,01,18,03,02,5.80
2015,01,18,03,03,5.80
2015,01,18,03,04,5.80
2015,01,18,03,05,5.90
2015,01,18,03,06,5.90
2015,01,18,03,07,5.90
2015,01,18,03,08,5.90
2015,01,18,03,09,5.90
2015,01,18,03,10,5.90
2015,01,18,03,11,5.90
2015,01,18,03,12,5.90
2015,01,18,03,13,5.90
2015,01,18,03,14,5.90
2015,01,18,03,15,5.90
2015,01,18,03,16,5.90
2015,01,18,03,17,5.90
2015,01,18,03,18,5.90
2015,01,18,03,19,5.90
2015,01,18,03,20,5.90
2015,01,18,03,21,5.90
2015,01,18,03,22,5.90
2015,01,18,03,23,5.90
2015,01,18,03,24,5.90
2015,01,18,03,25,5.90
2015,01,18,03,26,5.90
2015,01,18,03,27,5.90
2015,01,18,03,28,6.00
2015,01,18,03,29,6.00
2015,01,18,03,30,6.00
2015,01,18,03,31,6.00
2015,01,18,03,32,6.00
2015,01,18,03,33,6.00
2015,01,18,03,34,6.00
2015,01,18,03,35,6.00
2015,01,18,03,36,6.10
2015,01,18,03,37,6.10
2015,01,18,03,38,6.10
2015,01,18,03,39,6.10
2015,01,18,03,40,6.10
2015,01,18,03,41,6.10
2015,01,18,03,42,6.10
2015,01,18,03,43,6.10
2015,01,18,03,44,6.10
2015,01,18,03,45,6.10
2015,01,18,03,46,6.10
2015,01,18,03,47,6.10
2015,01,18,03,48,6.10
2015,01,18,03,49,6.10
2015,01,18,03,50,6.10
2015,01,18,03,51,6.10
2015,01,18,03,52,6.10
2015,01,18,03,53,6.10
2015,01,18,03,54,6.10
2015,01,18,03,55,6.10
2015,01,18,03,56,6.10
2015,01,18,03,57,6.10
2015,01,18,03,58,6.10
2015,01,18,03,59,6.20
2015,01,18,04,00,6.20
2015,01,18,04,01,6.20
2015,01,18,04,02,6.20
2015,01,18,04,03,6.20
2015,01,18,04,04,6.20
2015,01,18,04,05,6.20
2015,01,18,04,06,6.20
2015,01,18,04,07,6.20
2015,01,18,04,08,6.20
2015,01,18,04,09,6.30
2015,01,18,04,10,6.30
2015,01,18,04,11,6.30
2015,01,18,04,12,6.30
2015,01,18,04,13,6.30
2015,01,18,04,14,6.30
2015,01,18,04,15,6.30
2015,01,18,04,16,6.30
2015,01,18,04,17,6.30
2015,01,18,04,18,6.30
2015,01,18,04,19,6.40
2015,01,18,04,20,6.40
2015,01,18,04,21,6.40
2015,01,18,04,22,6.40
2015,01,18,04,23,6.40
2015,01,18,04,24,6.40
2015,01,18,04,25,6.40
2015,01,18,04,26,6.40
2015,01,18,04,27,6.40
2015,01,18,04,28,6.40
2015,01,18,04,29,6.40
2015,01,18,04,30,6.40
2015,01,18,04,31,6.40
2015,01,18,04,32,6.40
2015,01,18,04,33,6.40
2015,01,18,04,34,6.40
2015,01,18,04,35,6.40
2015,01,18,04,36,6.40
2015,01,18,04,37,6.40
2015,01,18,04,38,6.40
2015,01,18,04,39,6.40
2015,01,18,04,40,6.40
2015,01,18,04,41,6.40
2015,01,18,04,42,6.40
2015,01,18,04,43,6.40
2015,01,18,04,44,6.40
2015,01,18,04,45,6.40
2015,01,18,04,46,6.40
2015,01,18,04,47,6.40
2015,01,18,04,48,6.40
2015,01,18,04,49,6.40
2015,01,18,04,50,6.40
2015,01,18,04,51,6.40
2015,01,18,04,52,6.40
2015,01,18,04,53,6.40
2015,01,18,04,54,6.40
2015,01,18,04,55,6.40
2015,01,18,04,56,6.50
2015,01,18,04,57,6.50
2015,01,18,04,58,6.50
2015,01,18,04,59,6.60
2015,01,18,05,00,6.60
2015,01,18,05,01,6.60
2015,01,18,05,02,6.70
2015,01,18,05,03,6.80
2015,01,18,05,04,6.90
2015,01,18,05,05,7.00
2015,01,18,05,06,7.00
2015,01,18,05,07,7.10
2015,01,18,05,08,7.20
2015,01,18,05,09,7.20
2015,01,18,05,10,7.20
2015,01,18,05,11,7.20
2015,01,18,05,12,7.20
2015,01,18,05,13,7.30
2015,01,18,05,14,7.30
2015,01,18,05,15,7.30
2015,01,18,05,16,7.30
2015,01,18,05,17,7.30
2015,01,18,05,18,7.30
2015,01,18,05,19,7.30
2015,01,18,05,20,7.30
2015,01,18,05,21,7.30
2015,01,18,05,22,7.30
2015,01,18,05,23,7.30
2015,01,18,05,24,7.30
2015,01,18,05,25,7.30
2015,01,18,05,26,7.40
2015,01,18,05,27,7.40
2015,01,18,05,28,7.40
2015,01,18,05,29,7.40
2015,01,18,05,30,7.40
2015,01,18,05,31,7.40
2015,01,18,05,32,7.40
2015,01,18,05,33,7.40
2015,01,18,05,34,7.40
2015,01,18,05,35,7.50
2015,01,18,05,36,7.50
2015,01,18,05,37,7.50
2015,01,18,05,38,7.50
2015,01,18,05,39,7.50
2015,01,18,05,40,7.50
2015,01,18,05,41,7.60
2015,01,18,05,42,7.60
2015,01,18,05,43,7.60
2015,01,18,05,44,7.70
2015,01,18,05,45,7.70
2015,01,18,05,46,7.70
2015,01,18,05,47,7.80
2015,01,18,05,48,7.80
2015,01,18,05,49,7.80
2015,01,18,05,50,7.90
2015,01,18,05,51,8.00
2015,01,18,05,52,8.00
2015,01,18,05,53,8.10
2015,01,18,05,54,8.20
2015,01,18,05,55,8.20
2015,01,18,05,56,8.30
2015,01,18,05,57,8.30
2015,01,18,05,58,8.40
2015,01,18,05,59,8.40
2015,01,18,06,00,8.40
2015,01,18,06,01,8.40
2015,01,18,06,02,8.50
2015,01,18,06,03,8.50
2015,01,18,06,04,8.50
2015,01,18,06,05,8.50
2015,01,18,06,06,8.50
2015,01,18,06,07,8.60
2015,01,18,06,08,8.60
2015,01,18,06,09,8.60
2015,01,18,06,10,8.60
2015,01,18,06,11,8.60
2015,01,18,06,12,8.60
2015,01,18,06,13,8.60
2015,01,18,06,14,8.60
2015,01,18,06,15,8.60
2015,01,18,06,16,8.60
2015,01,18,06,17,8.60
2015,01,18,06,18,8.60
2015,01,18,06,19,8.60
2015,01,18,06,20,8.70
2015,01,18,06,21,8.70
2015,01,18,06,22,8.70
2015,01,18,06,23,8.70
2015,01,18,06,24,8.70
2015,01,18,06,25,8.70
2015,01,18,06,26,8.70
2015,01,18,06,27,8.70
2015,01,18,06,28,8.70
2015,01,18,06,29,8.70
2015,01,18,06,30,8.70
2015,01,18,06,31,8.70
2015,01,18,06,32,8.70
2015,01,18,06,33,8.70
2015,01,18,06,34,8.70
2015,01,18,06,35,8.70
2015,01,18,06,36,8.70
2015,01,18,06,37,8.70
2015,01,18,06,38,8.70
2015,01,18,06,39,8.70
2015,01,18,06,40,8.70
2015,01,18,06,41,8.70
2015,01,18,06,42,8.70
2015,01,18,06,43,8.70
2015,01,18,06,44,8.70
2015,01,18,06,45,8.70
2015,01,18,06,46,8.70
2015,01,18,06,47,8.70
2015,01,18,06,48,8.70
2015,01,18,06,49,8.70
2015,01,18,06,50,8.70
2015,01,18,06,51,8.70
2015,01,18,06,52,8.60
2015,01,18,06,53,8.60
2015,01,18,06,54,8.60
2015,01,18,06,55,8.60
2015,01,18,06,56,8.60
2015,01,18,06,57,8.60
2015,01,18,06,58,8.60
2015,01,18,06,59,8.50
2015,01,18,07,00,8.50
2015,01,18,07,01,8.50
2015,01,18,07,02,8.50
2015,01,18,07,03,8.50
2015,01,18,07,04,8.50
2015,01,18,07,05,8.50
2015,01,18,07,06,8.40
2015,01,18,07,07,8.40
2015,01,18,07,08,8.40
2015,01,18,07,09,8.40
2015,01,18,07,10,8.40
2015,01,18,07,11,8.40
2015,01,18,07,12,8.40
2015,01,18,07,13,8.40
2015,01,18,07,14,8.40
2015,01,18,07,15,8.40
2015,01,18,07,16,8.40
2015,01,18,07,17,8.40
2015,01,18,07,18,8.40
2015,01,18,07,19,8.40
2015,01,18,07,20,8.40
2015,01,18,07,21,8.40
2015,01,18,07,22,8.40
2015,01,18,07,23,8.40
2015,01,18,07,24,8.40
2015,01,18,07,25,8.40
2015,01,18,07,26,8.40
2015,01,18,07,27,8.40
2015,01,18,07,28,8.40
2015,01,18,07,29,8.40
2015,01,18,07,30,8.40
2015,01,18,07,31,8.40
2015,01,18,07,32,8.30
2015,01,18,07,33,8.30
2015,01,18,07,34,8.30
2015,01,18,07,35,8.30
2015,01,18,07,36,8.30
2015,01,18,07,37,8.30
2015,01,18,07,38,8.30
2015,01,18,07,39,8.30
2015,01,18,07,40,8.30
2015,01,18,07,41,8.30
2015,01,18,07,42,8.30
2015,01,18,07,43,8.30
2015,01,18,07,44,8.30
2015,01,18,07,45,8.30
2015,01,18,07,46,8.20
2015,01,18,07,47,8.20
2015,01,18,07,48,8.20
2015,01,18,07,49,8.20
2015,01,18,07,50,8.20
2015,01,18,07,51,8.20
2015,01,18,07,52,8.20
2015,01,18,07,53,8.20
2015,01,18,07,54,8.20
2015,01,18,07,55,8.20
2015,01,18,07,56,8.20
2015,01,18,07,57,8.20
2015,01,18,07,58,8.10
2015,01,18,07,59,8.10
2015,01,18,08,00,8.10
2015,01,18,08,01,8.10
2015,01,18,08,02,8.10
2015,01,18,08,03,8.10
2015,01,18,08,04,8.10
2015,01,18,08,05,8.10
2015,01,18,08,06,8.10
2015,01,18,08,07,8.10
2015,01,18,08,08,8.10
2015,01,18,08,09,8.10
2015,01,18,08,10,8.10
2015,01,18,08,11,8.10
2015,01,18,08,12,8.00
2015,01,18,08,13,8.00
2015,01,18,08,14,8.00
2015,01,18,08,15,8.00
2015,01,18,08,16,8.00
2015,01,18,08,17,8.00
2015,01,18,08,18,8.00
2015,01,18,08,19,7.90
2015,01,18,08,20,7.90
2015,01,18,08,21,7.90
2015,01,18,08,22,7.90
2015,01,18,08,23,7.90
2015,01,18,08,24,7.90
2015,01,18,08,25,7.90
2015,01,18,08,26,7.90
2015,01,18,08,27,7.90
2015,01,18,08,28,7.90
2015,01,18,08,29,7.90
2015,01,18,08,30,7.90
2015,01,18,08,31,7.90
2015,01,18,08,32,7.90
2015,01,18,08,33,7.90
2015,01,18,08,34,7.80
2015,01,18,08,35,7.80
2015,01,18,08,36,7.80
2015,01,18,08,37,7.80
2015,01,18,08,38,7.80
2015,01,18,08,39,7.80
2015,01,18,08,40,7.80
2015,01,18,08,41,7.80
2015,01,18,08,42,7.80
2015,01,18,08,43,7.80
2015,01,18,08,44,7.70
2015,01,18,08,45,7.70
2015,01,18,08,46,7.70
2015,01,18,08,47,7.70
2015,01,18,08,48,7.70
2015,01,18,08,49,7.70
2015,01,18,08,50,7.70
2015,01,18,08,51,7.70
2015,01,18,08,52,7.70
2015,01,18,08,53,7.70
2015,01,18,08,54,7.70
2015,01,18,08,55,7.70
2015,01,18,08,56,7.70
2015,01,18,08,57,7.70
2015,01,18,08,58,7.60
2015,01,18,08,59,7.60
2015,01,18,09,00,7.60
2015,01,18,09,01,7.60
2015,01,18,09,02,7.60
2015,01,18,09,03,7.50
2015,01,18,09,04,7.50
2015,01,18,09,05,7.50
2015,01,18,09,06,7.50
2015,01,18,09,07,7.50
2015,01,18,09,08,7.50
2015,01,18,09,09,7.50
2015,01,18,09,10,7.50
2015,01,18,09,11,7.50
2015,01,18,09,12,7.50
2015,01,18,09,13,7.50
2015,01,18,09,14,7.50
2015,01,18,09,15,7.50
2015,01,18,09,16,7.50
2015,01,18,09,17,7.50
2015,01,18,09,18,7.50
2015,01,18,09,19,7.50
2015,01,18,09,20,7.50
2015,01,18,09,21,7.50
2015,01,18,09,22,7.40
2015,01,18,09,23,7.40
2015,01,18,09,24,7.40
2015,01,18,09,25,7.40
2015,01,18,09,26,7.40
2015,01,18,09,27,7.40
2015,01,18,09,28,7.40
2015,01,18,09,29,7.40
2015,01,18,09,30,7.30
2015,01,18,09,31,7.30
2015,01,18,09,32,7.30
2015,01,18,09,33,7.30
2015,01,18,09,34,7.30
2015,01,18,09,35,7.30
2015,01,18,09,36,7.30
2015,01,18,09,37,7.30
2015,01,18,09,38,7.30
2015,01,18,09,39,7.30
2015,01,18,09,40,7.30
2015,01,18,09,41,7.30
2015,01,18,09,42,7.30
2015,01,18,09,43,7.30
2015,01,18,09,44,7.30
2015,01,18,09,45,7.30
2015,01,18,09,46,7.30
2015,01,18,09,47,7.30
2015,01,18,09,48,7.30
2015,01,18,09,49,7.30
2015,01,18,09,50,7.30
2015,01,18,09,51,7.30
2015,01,18,09,52,7.30
2015,01,18,09,53,7.30
2015,01,18,09,54,7.30
2015,01,18,09,55,7.40
2015,01,18,09,56,7.40
2015,01,18,09,57,7.40
2015,01,18,09,58,7.40
2015,01,18,09,59,7.40
2015,01,18,10,00,7.40
2015,01,18,10,01,7.40
2015,01,18,10,02,7.40
2015,01,18,10,03,7.40
2015,01,18,10,04,7.40
2015,01,18,10,05,7.40
2015,01,18,10,06,7.40
2015,01,18,10,07,7.40
2015,01,18,10,08,7.40
2015,01,18,10,09,7.40
2015,01,18,10,10,7.50
2015,01,18,10,11,7.50
2015,01,18,10,12,7.50
2015,01,18,10,13,7.50
2015,01,18,10,14,7.50
2015,01,18,10,15,7.50
2015,01,18,10,16,7.60
2015,01,18,10,17,7.60
2015,01,18,10,18,7.60
2015,01,18,10,19,7.60
2015,01,18,10,20,7.60
2015,01,18,10,21,7.60
2015,01,18,10,22,7.60
2015,01,18,10,23,7.60
2015,01,18,10,24,7.70
2015,01,18,10,25,7.70
2015,01,18,10,26,7.70
2015,01,18,10,27,7.70
2015,01,18,10,28,7.80
2015,01,18,10,29,7.80
2015,01,18,10,30,7.90
2015,01,18,10,31,7.90
2015,01,18,10,32,8.00
2015,01,18,10,33,8.00
2015,01,18,10,34,8.10
2015,01,18,10,35,8.10
2015,01,18,10,36,8.10
2015,01,18,10,37,8.10
2015,01,18,10,38,8.10
2015,01,18,10,39,8.10
2015,01,18,10,40,8.10
2015,01,18,10,41,8.10
2015,01,18,10,42,8.10
2015,01,18,10,43,8.10
2015,01,18,10,44,8.10
2015,01,18,10,45,8.10
2015,01,18,10,46,8.20
2015,01,18,10,47,8.20
2015,01,18,10,48,8.30
2015,01,18,10,49,8.30
2015,01,18,10,50,8.30
2015,01,18,10,51,8.30
2015,01,18,10,52,8.30
2015,01,18,10,53,8.30
2015,01,18,10,54,8.30
2015,01,18,10,55,8.30
2015,01,18,10,56,8.30
2015,01,18,10,57,8.30
2015,01,18,10,58,8.30
2015,01,18,10,59,8.30
2015,01,18,11,00,8.30
2015,01,18,11,01,8.20
2015,01,18,11,02,8.20
2015,01,18,11,03,8.20
2015,01,18,11,04,8.20
2015,01,18,11,05,8.20
2015,01,18,11,06,8.20
2015,01,18,11,07,8.20
2015,01,18,11,08,8.20
2015,01,18,11,09,8.20
2015,01,18,11,10,8.20
2015,01,18,11,11,8.20
2015,01,18,11,12,8.20
2015,01,18,11,13,8.10
2015,01,18,11,14,8.10
2015,01,18,11,15,8.10
2015,01,18,11,16,8.10
2015,01,18,11,17,8.10
2015,01,18,11,18,8.10
2015,01,18,11,19,8.10
2015,01,18,11,20,8.10
2015,01,18,11,21,8.10
2015,01,18,11,22,8.10
2015,01,18,11,23,8.10
2015,01,18,11,24,8.10
2015,01,18,11,25,8.10
2015,01,18,11,26,8.10
2015,01,18,11,27,8.20
2015,01,18,11,28,8.20
2015,01,18,11,29,8.20
2015,01,18,11,30,8.20
2015,01,18,11,31,8.20
2015,01,18,11,32,8.20
2015,01,18,11,33,8.20
2015,01,18,11,34,8.20
2015,01,18,11,35,8.20
2015,01,18,11,36,8.20
2015,01,18,11,37,8.30
2015,01,18,11,38,8.30
2015,01,18,11,39,8.30
2015,01,18,11,40,8.30
2015,01,18,11,41,8.30
2015,01,18,11,42,8.30
2015,01,18,11,43,8.30
2015,01,18,11,44,8.30
2015,01,18,11,45,8.40
2015,01,18,11,46,8.40
2015,01,18,11,47,8.40
2015,01,18,11,48,8.40
2015,01,18,11,49,8.40
2015,01,18,11,50,8.50
2015,01,18,11,51,8.50
2015,01,18,11,52,8.50
2015,01,18,11,53,8.50
2015,01,18,11,54,8.60
2015,01,18,11,55,8.60
2015,01,18,11,56,8.60
2015,01,18,11,57,8.60
2015,01,18,11,58,8.60
2015,01,18,11,59,8.70
2015,01,18,12,00,8.70
2015,01,18,12,01,8.70
2015,01,18,12,02,8.70
2015,01,18,12,03,8.80
2015,01,18,12,04,8.80
2015,01,18,12,05,8.80
2015,01,18,12,06,8.80
2015,01,18,12,07,8.80
2015,01,18,12,08,8.80
2015,01,18,12,09,8.80
2015,01,18,12,10,8.80
2015,01,18,12,11,8.80
2015,01,18,12,12,8.80
2015,01,18,12,13,8.80
2015,01,18,12,14,8.80
2015,01,18,12,15,8.80
2015,01,18,12,16,8.80
2015,01,18,12,17,8.80
2015,01,18,12,18,8.80
2015,01,18,12,19,8.80
2015,01,18,12,20,8.80
2015,01,18,12,21,8.80
2015,01,18,12,22,8.80
2015,01,18,12,23,8.80
2015,01,18,12,24,8.80
2015,01,18,12,25,8.80
2015,01,18,12,26,8.90
2015,01,18,12,27,8.90
2015,01,18,12,28,8.90
2015,01,18,12,29,8.90
2015,01,18,12,30,8.90
2015,01,18,12,31,8.90
2015,01,18,12,32,8.90
2015,01,18,12,33,9.00
2015,01,18,12,34,9.00
2015,01,18,12,35,9.00
2015,01,18,12,36,9.00
2015,01,18,12,37,9.00
2015,01,18,12,38,9.10
2015,01,18,12,39,9.10
2015,01,18,12,40,9.10
2015,01,18,12,41,9.10
2015,01,18,12,42,9.20
2015,01,18,12,43,9.20
2015,01,18,12,44,9.20
2015,01,18,12,45,9.20
2015,01,18,12,46,9.30
2015,01,18,12,47,9.30
2015,01,18,12,48,9.30
2015,01,18,12,49,9.30
2015,01,18,12,50,9.30
2015,01,18,12,51,9.30
2015,01,18,12,52,9.30
2015,01,18,12,53,9.30
2015,01,18,12,54,9.30
2015,01,18,12,55,9.30
2015,01,18,12,56,9.20
2015,01,18,12,57,9.20
2015,01,18,12,58,9.20
2015,01,18,12,59,9.20
2015,01,18,13,00,9.20
2015,01,18,13,01,9.10
2015,01,18,13,02,9.10
2015,01,18,13,03,9.10
2015,01,18,13,04,9.10
2015,01,18,13,05,9.10
2015,01,18,13,06,9.00
2015,01,18,13,07,9.00
2015,01,18,13,08,9.00
2015,01,18,13,09,9.00
2015,01,18,13,10,9.00
2015,01,18,13,11,9.00
2015,01,18,13,12,9.00
2015,01,18,13,13,9.00
2015,01,18,13,14,9.00
2015,01,18,13,15,9.00
2015,01,18,13,16,9.00
2015,01,18,13,17,9.00
2015,01,18,13,18,9.00
2015,01,18,13,19,9.00
2015,01,18,13,20,9.00
2015,01,18,13,21,9.00
2015,01,18,13,22,9.00
2015,01,18,13,23,9.00
2015,01,18,13,24,9.00
2015,01,18,13,25,9.00
2015,01,18,13,26,8.90
2015,01,18,13,27,8.90
2015,01,18,13,28,8.90
2015,01,18,13,29,8.90
2015,01,18,13,30,8.90
2015,01,18,13,31,8.90
2015,01,18,13,32,8.90
2015,01,18,13,33,8.90
2015,01,18,13,34,8.90
2015,01,18,13,35,8.90
2015,01,18,13,36,8.90
2015,01,18,13,37,8.90
2015,01,18,13,38,8.90
2015,01,18,13,39,8.90
2015,01,18,13,40,8.90
2015,01,18,13,41,8.90
2015,01,18,13,42,8.90
2015,01,18,13,43,8.90
2015,01,18,13,44,8.90
2015,01,18,13,45,8.90
2015,01,18,13,46,8.90
2015,01,18,13,47,8.90
2015,01,18,13,48,8.90
2015,01,18,13,49,8.90
2015,01,18,13,50,8.90
2015,01,18,13,51,9.00
2015,01,18,13,52,9.00
2015,01,18,13,53,9.00
2015,01,18,13,54,9.10
2015,01,18,13,55,9.10
2015,01,18,13,56,9.10
2015,01,18,13,57,9.10
2015,01,18,13,58,9.10
2015,01,18,13,59,9.10
2015,01,18,14,00,9.20
2015,01,18,14,01,9.20
2015,01,18,14,02,9.20
2015,01,18,14,03,9.20
2015,01,18,14,04,9.20
2015,01,18,14,05,9.30
2015,01,18,14,06,9.30
2015,01,18,14,07,9.30
2015,01,18,14,08,9.30
2015,01,18,14,09,9.30
2015,01,18,14,10,9.30
2015,01,18,14,11,9.40
2015,01,18,14,12,9.40
2015,01,18,14,13,9.40
2015,01,18,14,14,9.40
2015,01,18,14,15,9.40
2015,01,18,14,16,9.40
2015,01,18,14,17,9.40
2015,01,18,14,18,9.40
2015,01,18,14,19,9.40
2015,01,18,14,20,9.40
2015,01,18,14,21,9.40
2015,01,18,14,22,9.40
2015,01,18,14,23,9.40
2015,01,18,14,24,9.40
2015,01,18,14,25,9.40
2015,01,18,14,26,9.40
2015,01,18,14,27,9.40
2015,01,18,14,28,9.50
2015,01,18,14,29,9.50
2015,01,18,14,30,9.60
2015,01,18,14,31,9.60
2015,01,18,14,32,9.60
2015,01,18,14,33,9.60
2015,01,18,14,34,9.60
2015,01,18,14,35,9.60
2015,01,18,14,36,9.60
2015,01,18,14,37,9.60
2015,01,18,14,38,9.60
2015,01,18,14,39,9.90
2015,01,18,14,40,10.10
2015,01,18,14,41,10.10
2015,01,18,14,42,10.10
2015,01,18,14,43,10.10
2015,01,18,14,44,10.00
2015,01,18,14,45,10.10
2015,01,18,14,46,10.00
2015,01,18,14,47,10.10
2015,01,18,14,48,10.10
2015,01,18,14,49,10.10
2015,01,18,14,50,10.10
2015,01,18,14,51,10.10
2015,01,18,14,52,10.10
2015,01,18,14,53,10.10
2015,01,18,14,54,10.10
2015,01,18,14,55,10.10
2015,01,18,14,56,10.20
2015,01,18,14,57,10.20
2015,01,18,14,58,10.20
2015,01,18,14,59,10.20
2015,01,18,15,00,10.30
2015,01,18,15,01,10.30
2015,01,18,15,02,10.40
2015,01,18,15,03,10.40
2015,01,18,15,04,10.50
2015,01,18,15,05,10.50
2015,01,18,15,06,10.50
2015,01,18,15,07,10.50
2015,01,18,15,08,10.50
2015,01,18,15,09,10.40
2015,01,18,15,10,10.40
2015,01,18,15,11,10.40
2015,01,18,15,12,10.40
2015,01,18,15,13,10.40
2015,01,18,15,14,10.40
2015,01,18,15,15,10.40
2015,01,18,15,16,10.30
2015,01,18,15,17,10.30
2015,01,18,15,18,10.30
2015,01,18,15,19,10.30
2015,01,18,15,20,10.20
2015,01,18,15,21,10.20
2015,01,18,15,22,10.20
2015,01,18,15,23,10.20
2015,01,18,15,24,10.10
2015,01,18,15,25,10.10
2015,01,18,15,26,10.10
2015,01,18,15,27,10.10
2015,01,18,15,28,10.00
2015,01,18,15,29,10.00
2015,01,18,15,30,9.90
2015,01,18,15,31,9.90
2015,01,18,15,32,9.90
2015,01,18,15,33,9.80
2015,01,18,15,34,9.80
2015,01,18,15,35,9.80
2015,01,18,15,36,9.80
2015,01,18,15,37,9.80
2015,01,18,15,38,9.70
2015,01,18,15,39,9.70
2015,01,18,15,40,9.70
2015,01,18,15,41,9.60
2015,01,18,15,42,9.60
2015,01,18,15,43,9.60
2015,01,18,15,44,9.50
2015,01,18,15,45,9.50
2015,01,18,15,46,9.40
2015,01,18,15,47,9.40
2015,01,18,15,48,9.40
2015,01,18,15,49,9.40
2015,01,18,15,50,9.40
2015,01,18,15,51,9.40
2015,01,18,15,52,9.40
2015,01,18,15,53,9.40
2015,01,18,15,54,9.40
2015,01,18,15,55,9.40
2015,01,18,15,56,9.40
2015,01,18,15,57,9.40
2015,01,18,15,58,9.40
2015,01,18,15,59,9.40
2015,01,18,16,00,9.40
2015,01,18,16,01,9.40
2015,01,18,16,02,9.40
2015,01,18,16,03,9.40
2015,01,18,16,04,9.40
2015,01,18,16,05,9.40
2015,01,18,16,06,9.40
2015,01,18,16,07,9.40
2015,01,18,16,08,9.40
2015,01,18,16,09,9.40
2015,01,18,16,10,9.40
2015,01,18,16,11,9.40
2015,01,18,16,12,9.40
2015,01,18,16,13,9.40
2015,01,18,16,14,9.40
2015,01,18,16,15,9.40
2015,01,18,16,16,9.40
2015,01,18,16,17,9.40
2015,01,18,16,18,9.40
2015,01,18,16,19,9.40
2015,01,18,16,20,9.40
2015,01,18,16,21,9.40
2015,01,18,16,22,9.40
2015,01,18,16,23,9.40
2015,01,18,16,24,9.40
2015,01,18,16,25,9.40
2015,01,18,16,26,9.40
2015,01,18,16,27,9.40
2015,01,18,16,28,9.40
2015,01,18,16,29,9.40
2015,01,18,16,30,9.30
2015,01,18,16,31,9.30
2015,01,18,16,32,9.30
2015,01,18,16,33,9.30
2015,01,18,16,34,9.30
2015,01,18,16,35,9.30
2015,01,18,16,36,9.30
2015,01,18,16,37,9.30
2015,01,18,16,38,9.30
2015,01,18,16,39,9.20
2015,01,18,16,40,9.20
2015,01,18,16,41,9.20
2015,01,18,16,42,9.20
2015,01,18,16,43,9.20
2015,01,18,16,44,9.10
2015,01,18,16,45,9.10
2015,01,18,16,46,9.10
2015,01,18,16,47,9.10
2015,01,18,16,48,9.10
2015,01,18,16,49,9.00
2015,01,18,16,50,9.00
2015,01,18,16,51,9.00
2015,01,18,16,52,8.90
2015,01,18,16,53,8.90
2015,01,18,16,54,8.90
2015,01,18,16,55,8.90
2015,01,18,16,56,8.90
2015,01,18,16,57,8.80
2015,01,18,16,58,8.80
2015,01,18,16,59,8.80
2015,01,18,17,00,8.70
2015,01,18,17,01,8.70
2015,01,18,17,02,8.60
2015,01,18,17,03,8.60
2015,01,18,17,04,8.60
2015,01,18,17,05,8.50
2015,01,18,17,06,8.40
2015,01,18,17,07,8.40
2015,01,18,17,08,8.30
2015,01,18,17,09,8.30
2015,01,18,17,10,8.30
2015,01,18,17,11,8.30
2015,01,18,17,12,8.20
2015,01,18,17,13,8.20
2015,01,18,17,14,8.20
2015,01,18,17,15,8.10
2015,01,18,17,16,8.10
2015,01,18,17,17,8.10
2015,01,18,17,18,8.00
2015,01,18,17,19,8.00
2015,01,18,17,20,7.90
2015,01,18,17,21,7.90
2015,01,18,17,22,7.80
2015,01,18,17,23,7.80
2015,01,18,17,24,7.80
2015,01,18,17,25,7.80
2015,01,18,17,26,7.80
2015,01,18,17,27,7.70
2015,01,18,17,28,7.70
2015,01,18,17,29,7.60
2015,01,18,17,30,7.60
2015,01,18,17,31,7.50
2015,01,18,17,32,7.40
2015,01,18,17,33,7.40
2015,01,18,17,34,7.40
2015,01,18,17,35,7.30
2015,01,18,17,36,7.30
2015,01,18,17,37,7.30
2015,01,18,17,38,7.30
2015,01,18,17,39,7.30
2015,01,18,17,40,7.20
2015,01,18,17,41,7.20
2015,01,18,17,42,7.20
2015,01,18,17,43,7.20
2015,01,18,17,44,7.20
2015,01,18,17,45,7.20
2015,01,18,17,46,7.20
2015,01,18,17,47,7.20
2015,01,18,17,48,7.20
2015,01,18,17,49,7.10
2015,01,18,17,50,7.20
2015,01,18,17,51,7.10
2015,01,18,17,52,7.10
2015,01,18,17,53,7.10
2015,01,18,17,54,7.10
2015,01,18,17,55,7.10
2015,01,18,17,56,7.10
2015,01,18,17,57,7.10
2015,01,18,17,58,7.10
2015,01,18,17,59,7.00
2015,01,18,18,00,7.00
2015,01,18,18,01,7.00
2015,01,18,18,02,7.00
2015,01,18,18,03,7.00
2015,01,18,18,04,7.00